Time,TemperatureF,DewpointF,PressureIn,WindDirection,WindDirectionDegrees,WindSpeedMPH,WindSpeedGustMPH,Humidity,HourlyPrecipIn,Conditions,Clouds,dailyrainin,SoftwareType,DateUTC
2013-11-25 00:23:00,21.0,-99.9,30.46,North,-999,-999.0,-999.0,71,-99.99,,,-99.99,,2013-11-25 05:23:00,
2013-11-25 00:33:00,21.0,-99.9,30.46,North,-999,-999.0,-999.0,71,-99.99,,,-99.99,,2013-11-25 05:33:00,
2013-11-25 00:43:00,21.0,-99.9,30.46,North,-999,-999.0,-999.0,71,-99.99,,,-99.99,,2013-11-25 05:43:00,
2013-11-25 01:22:00,20.0,-99.9,30.45,North,-999,-999.0,-999.0,77,-99.99,,,-99.99,,2013-11-25 06:22:00,
2013-11-25 01:32:00,20.0,-99.9,30.45,North,-999,-999.0,-999.0,77,-99.99,,,-99.99,,2013-11-25 06:32:00,
2013-11-25 01:42:00,20.0,-99.9,30.45,North,-999,-999.0,-999.0,77,-99.99,,,-99.99,,2013-11-25 06:42:00,
2013-11-25 02:22:00,20.0,-99.9,30.45,North,-999,-999.0,-999.0,78,-99.99,,,-99.99,,2013-11-25 07:22:00,
2013-11-25 02:32:00,20.0,-99.9,30.45,North,-999,-999.0,-999.0,78,-99.99,,,-99.99,,2013-11-25 07:32:00,
2013-11-25 02:42:00,20.0,-99.9,30.45,North,-999,-999.0,-999.0,78,-99.99,,,-99.99,,2013-11-25 07:42:00,
2013-11-25 03:22:00,19.0,-99.9,30.46,North,-999,-999.0,-999.0,78,-99.99,,,-99.99,,2013-11-25 08:22:00,
2013-11-25 03:32:00,19.0,-99.9,30.46,North,-999,-999.0,-999.0,78,-99.99,,,-99.99,,2013-11-25 08:32:00,
2013-11-25 03:42:00,19.0,-99.9,30.46,North,-999,-999.0,-999.0,78,-99.99,,,-99.99,,2013-11-25 08:42:00,
2013-11-25 04:22:00,19.0,-99.9,30.43,North,-999,-999.0,-999.0,75,-99.99,,,-99.99,,2013-11-25 09:22:00,
2013-11-25 04:33:00,19.0,-99.9,30.43,North,-999,-999.0,-999.0,75,-99.99,,,-99.99,,2013-11-25 09:33:00,
2013-11-25 04:44:00,19.0,-99.9,30.43,North,-999,-999.0,-999.0,75,-99.99,,,-99.99,,2013-11-25 09:44:00,
2013-11-25 05:23:00,19.0,-99.9,30.42,North,-999,-999.0,-999.0,73,-99.99,,,-99.99,,2013-11-25 10:23:00,
2013-11-25 05:34:00,19.0,-99.9,30.42,North,-999,-999.0,-999.0,73,-99.99,,,-99.99,,2013-11-25 10:34:00,
2013-11-25 05:43:00,19.0,-99.9,30.42,North,-999,-999.0,-999.0,73,-99.99,,,-99.99,,2013-11-25 10:43:00,
2013-11-25 06:22:00,19.0,-99.9,30.41,North,-999,-999.0,-999.0,73,-99.99,,,-99.99,,2013-11-25 11:22:00,
2013-11-25 06:33:00,19.0,-99.9,30.41,North,-999,-999.0,-999.0,73,-99.99,,,-99.99,,2013-11-25 11:33:00,
2013-11-25 06:43:00,19.0,-99.9,30.41,North,-999,-999.0,-999.0,73,-99.99,,,-99.99,,2013-11-25 11:43:00,
2013-11-25 07:22:00,19.0,-99.9,30.40,North,-999,-999.0,-999.0,73,-99.99,,,-99.99,,2013-11-25 12:22:00,
2013-11-25 07:32:00,19.0,-99.9,30.40,North,-999,-999.0,-999.0,73,-99.99,,,-99.99,,2013-11-25 12:32:00,
2013-11-25 07:42:00,19.0,-99.9,30.40,North,-999,-999.0,-999.0,73,-99.99,,,-99.99,,2013-11-25 12:42:00,
2013-11-25 08:22:00,19.0,-99.9,30.37,North,-999,-999.0,-999.0,71,-99.99,,,-99.99,,2013-11-25 13:22:00,
2013-11-25 08:32:00,19.0,-99.9,30.37,North,-999,-999.0,-999.0,71,-99.99,,,-99.99,,2013-11-25 13:32:00,
2013-11-25 08:42:00,19.0,-99.9,30.37,North,-999,-999.0,-999.0,71,-99.99,,,-99.99,,2013-11-25 13:42:00,
2013-11-25 09:22:00,21.0,-99.9,30.35,North,-999,-999.0,-999.0,63,-99.99,,,-99.99,,2013-11-25 14:22:00,
2013-11-25 09:32:00,21.0,-99.9,30.35,North,-999,-999.0,-999.0,63,-99.99,,,-99.99,,2013-11-25 14:32:00,
2013-11-25 09:42:00,21.0,-99.9,30.35,North,-999,-999.0,-999.0,63,-99.99,,,-99.99,,2013-11-25 14:42:00,
2013-11-25 10:22:00,24.0,-99.9,30.33,North,-999,-999.0,-999.0,55,-99.99,,,-99.99,,2013-11-25 15:22:00,
2013-11-25 10:34:00,24.0,-99.9,30.33,North,-999,-999.0,-999.0,55,-99.99,,,-99.99,,2013-11-25 15:34:00,
2013-11-25 10:45:00,24.0,-99.9,30.33,North,-999,-999.0,-999.0,55,-99.99,,,-99.99,,2013-11-25 15:45:00,
2013-11-25 11:23:00,27.0,-99.9,30.30,North,-999,-999.0,-999.0,47,-99.99,,,-99.99,,2013-11-25 16:23:00,
2013-11-25 11:34:00,27.0,-99.9,30.30,North,-999,-999.0,-999.0,47,-99.99,,,-99.99,,2013-11-25 16:34:00,
2013-11-25 11:43:00,27.0,-99.9,30.30,North,-999,-999.0,-999.0,47,-99.99,,,-99.99,,2013-11-25 16:43:00,
2013-11-25 12:22:00,29.0,-99.9,30.26,North,-999,-999.0,-999.0,42,-99.99,,,-99.99,,2013-11-25 17:22:00,
2013-11-25 12:33:00,29.0,-99.9,30.26,North,-999,-999.0,-999.0,42,-99.99,,,-99.99,,2013-11-25 17:33:00,
2013-11-25 12:43:00,29.0,-99.9,30.26,North,-999,-999.0,-999.0,42,-99.99,,,-99.99,,2013-11-25 17:43:00,
2013-11-25 13:22:00,30.0,-99.9,30.22,North,-999,-999.0,-999.0,42,-99.99,,,-99.99,,2013-11-25 18:22:00,
2013-11-25 13:33:00,30.0,-99.9,30.22,North,-999,-999.0,-999.0,42,-99.99,,,-99.99,,2013-11-25 18:33:00,
2013-11-25 13:42:00,30.0,-99.9,30.22,North,-999,-999.0,-999.0,42,-99.99,,,-99.99,,2013-11-25 18:42:00,
2013-11-25 14:22:00,31.0,-99.9,30.20,North,-999,-999.0,-999.0,37,-99.99,,,-99.99,,2013-11-25 19:22:00,
2013-11-25 14:32:00,31.0,-99.9,30.20,North,-999,-999.0,-999.0,37,-99.99,,,-99.99,,2013-11-25 19:32:00,
2013-11-25 14:42:00,31.0,-99.9,30.20,North,-999,-999.0,-999.0,37,-99.99,,,-99.99,,2013-11-25 19:42:00,
2013-11-25 15:22:00,30.0,-99.9,30.19,North,-999,-999.0,-999.0,42,-99.99,,,-99.99,,2013-11-25 20:22:00,
2013-11-25 15:32:00,30.0,-99.9,30.19,North,-999,-999.0,-999.0,42,-99.99,,,-99.99,,2013-11-25 20:32:00,
2013-11-25 15:42:00,30.0,-99.9,30.19,North,-999,-999.0,-999.0,42,-99.99,,,-99.99,,2013-11-25 20:42:00,
2013-11-25 16:22:00,32.0,-99.9,30.17,North,-999,-999.0,-999.0,43,-99.99,,,-99.99,,2013-11-25 21:22:00,
2013-11-25 16:33:00,32.0,-99.9,30.17,North,-999,-999.0,-999.0,43,-99.99,,,-99.99,,2013-11-25 21:33:00,
2013-11-25 16:44:00,32.0,-99.9,30.17,North,-999,-999.0,-999.0,43,-99.99,,,-99.99,,2013-11-25 21:44:00,
2013-11-25 17:23:00,32.0,-99.9,30.19,North,-999,-999.0,-999.0,38,-99.99,,,-99.99,,2013-11-25 22:23:00,
2013-11-25 17:33:00,32.0,-99.9,30.19,North,-999,-999.0,-999.0,38,-99.99,,,-99.99,,2013-11-25 22:33:00,
2013-11-25 17:43:00,32.0,-99.9,30.19,North,-999,-999.0,-999.0,38,-99.99,,,-99.99,,2013-11-25 22:43:00,
2013-11-25 18:22:00,32.0,-99.9,30.17,North,-999,-999.0,-999.0,45,-99.99,,,-99.99,,2013-11-25 23:22:00,
2013-11-25 18:33:00,32.0,-99.9,30.17,North,-999,-999.0,-999.0,45,-99.99,,,-99.99,,2013-11-25 23:33:00,
2013-11-25 18:42:00,32.0,-99.9,30.17,North,-999,-999.0,-999.0,45,-99.99,,,-99.99,,2013-11-25 23:42:00,
2013-11-25 19:22:00,31.0,-99.9,30.18,North,-999,-999.0,-999.0,62,-99.99,,,-99.99,,2013-11-26 00:22:00,
2013-11-25 19:32:00,31.0,-99.9,30.18,North,-999,-999.0,-999.0,62,-99.99,,,-99.99,,2013-11-26 00:32:00,
2013-11-25 19:42:00,31.0,-99.9,30.18,North,-999,-999.0,-999.0,62,-99.99,,,-99.99,,2013-11-26 00:42:00,
2013-11-25 20:22:00,34.0,13.0,30.16,North,-999,-999.0,-999.0,42,-99.99,,,-99.99,,2013-11-26 01:22:00,
2013-11-25 20:32:00,34.0,13.0,30.16,North,-999,-999.0,-999.0,42,-99.99,,,-99.99,,2013-11-26 01:32:00,
2013-11-25 20:42:00,34.0,13.0,30.16,North,-999,-999.0,-999.0,42,-99.99,,,-99.99,,2013-11-26 01:42:00,
2013-11-25 21:22:00,33.0,17.0,30.16,North,-999,-999.0,-999.0,51,-99.99,,,-99.99,,2013-11-26 02:22:00,
2013-11-25 21:32:00,33.0,17.0,30.16,North,-999,-999.0,-999.0,51,-99.99,,,-99.99,,2013-11-26 02:32:00,
2013-11-25 21:42:00,33.0,17.0,30.16,North,-999,-999.0,-999.0,51,-99.99,,,-99.99,,2013-11-26 02:42:00,
2013-11-25 22:22:00,34.0,13.0,30.16,North,-999,-999.0,-999.0,41,-99.99,,,-99.99,,2013-11-26 03:22:00,
2013-11-25 22:33:00,34.0,13.0,30.16,North,-999,-999.0,-999.0,41,-99.99,,,-99.99,,2013-11-26 03:33:00,
2013-11-25 22:44:00,34.0,13.0,30.16,North,-999,-999.0,-999.0,41,-99.99,,,-99.99,,2013-11-26 03:44:00,
2013-11-25 23:23:00,35.0,13.0,30.16,North,-999,-999.0,-999.0,40,-99.99,,,-99.99,,2013-11-26 04:23:00,
2013-11-25 23:34:00,35.0,13.0,30.16,North,-999,-999.0,-999.0,40,-99.99,,,-99.99,,2013-11-26 04:34:00,
2013-11-25 23:44:00,35.0,13.0,30.16,North,-999,-999.0,-999.0,40,-99.99,,,-99.99,,2013-11-26 04:44:00,